NORTHEAST SUFFOLK  -  Winter Weather Advisory Winter Weather Advisory        NORTHERN NASSAU  -  Winter Weather Advisory Winter Weather Advisory        NORTHERN QUEENS  -  Winter Weather Advisory Winter Weather Advisory        NORTHWEST SUFFOLK  -  Winter Weather Advisory Winter Weather Advisory        SOUTHEAST SUFFOLK  -  Winter Weather Advisory Winter Weather Advisory        SOUTHERN NASSAU  -  Winter Weather Advisory Winter Weather Advisory        SOUTHERN QUEENS  -  Winter Weather Advisory Winter Weather Advisory        SOUTHWEST SUFFOLK  -  Winter Weather Advisory Winter Weather Advisory      

Active alerts

Northern Queens
  Details for Northern Queens Winter Weather Advisory
Southern Queens
  Details for Southern Queens Winter Weather Advisory
Northern Nassau
  Details for Northern Nassau Winter Weather Advisory
Southern Nassau
  Details for Southern Nassau Winter Weather Advisory
Northwest Suffolk
  Details for Northwest Suffolk Winter Weather Advisory
Southwest Suffolk
  Details for Southwest Suffolk Winter Weather Advisory
Northeast Suffolk
  Details for Northeast Suffolk Winter Weather Advisory
Southeast Suffolk
  Details for Southeast Suffolk Winter Weather Advisory


WXM80 ListenWXM80 Stop

You find our weather info also at:

UK Metoffice

WeatherCloud

Weather Underground

Northeastern Weather Network

AWEKAS

Citizen Weather Observer Program (CWOP)

HAMweather, WeatherForYou, PWS Weather


Weather Underground History page Text

Daily Summary for January 8, 2018 Units:  Metric    English   Both
« Previous Day
Next Day »
Daily Weekly Monthly Yearly Custom
  High: Low: Average:
Temperature: 0.7 °C -8.1 °C -1.6 °C
Dew Point: -3.2 °C -13.8 °C -6.1 °C
Humidity: 83 % 51 % 72 %
Wind Speed: 16.1 km/h 0 km/h 5.8 km/h
Wind Gust: 29.6 km/h - -
Wind:- - SW
Pressure: 1028 hPa 1008 hPa -
Precipitation: 0 mm    
Historical Graphs
 
 
Tabular Data for January 8, 2018
Time Temperature Dew Point Pressure Wind Wind Speed Wind Gust Humidity Rainfall Rate (Hourly)
00:08 -8 °C -13.8 °C 1028 hPa SSW 4.2 km/h 25.9 km/h 63 % 0 mm
00:37 -8.1 °C -13.7 °C 1027.7 hPa SW 8.5 km/h 20.9 km/h 64 % 0 mm
01:23 -7.6 °C -13.1 °C 1027.3 hPa SW 8 km/h 29.6 km/h 65 % 0 mm
02:35 -7.1 °C -12.6 °C 1027.3 hPa SW 8.5 km/h 29.6 km/h 65 % 0 mm
03:18 -6.7 °C -12.3 °C 1026.6 hPa SW 9.8 km/h 24.1 km/h 64 % 0 mm
03:51 -6.5 °C -12.4 °C 1026.3 hPa SSW 3.5 km/h 20.4 km/h 63 % 0 mm
03:53 -6.5 °C -12.4 °C 1026.3 hPa SW 6.8 km/h 11.3 km/h 63 % 0 mm
04:04 -6.4 °C -12.3 °C 1026.3 hPa SW 6.8 km/h 18.5 km/h 63 % 0 mm
04:15 -6.4 °C -12.3 °C 1026 hPa SSW 9.2 km/h 16.7 km/h 63 % 0 mm
04:18 -6.4 °C -12.3 °C 1026 hPa SSW 7.9 km/h 19.3 km/h 63 % 0 mm
04:20 -6.4 °C -12.3 °C 1026 hPa SSW 5 km/h 16.7 km/h 63 % 0 mm
04:25 -6.4 °C -12.3 °C 1026 hPa SW 3.2 km/h 18.5 km/h 63 % 0 mm
04:30 -6.3 °C -12.1 °C 1026 hPa SW 9.2 km/h 12.9 km/h 64 % 0 mm
04:34 -6.4 °C -12.1 °C 1026 hPa SW 10 km/h 20.4 km/h 64 % 0 mm
04:40 -6.3 °C -12.1 °C 1026 hPa SSW 5.5 km/h 8 km/h 64 % 0 mm
04:43 -6.3 °C -12.1 °C 1026 hPa South 4.3 km/h 9.7 km/h 64 % 0 mm
04:44 -6.3 °C -12.1 °C 1026 hPa WSW 7.7 km/h 11.1 km/h 64 % 0 mm
04:49 -6.3 °C -12.1 °C 1026 hPa South 9 km/h 16.7 km/h 64 % 0 mm
04:55 -6.3 °C -11.8 °C 1026 hPa SW 6.6 km/h 11.3 km/h 65 % 0 mm
04:59 -6.3 °C -12.1 °C 1026 hPa SW 7.2 km/h 16.7 km/h 64 % 0 mm
05:04 -6.3 °C -11.8 °C 1026 hPa WSW 5.3 km/h 9.3 km/h 65 % 0 mm
05:09 -6.4 °C -12.2 °C 1026 hPa SSW 9.7 km/h 16.7 km/h 64 % 0 mm
05:14 -6.4 °C -12.2 °C 1025.6 hPa SSW 6.8 km/h 11.1 km/h 64 % 0 mm
05:20 -6.5 °C -12.2 °C 1025.6 hPa SSW 7.4 km/h 13 km/h 64 % 0 mm
05:22 -6.6 °C -12.2 °C 1026 hPa SSW 6.9 km/h 14.8 km/h 64 % 0 mm
05:28 -6.6 °C -12.1 °C 1026 hPa SSW 6.1 km/h 13 km/h 65 % 0 mm
05:33 -6.7 °C -12.2 °C 1026 hPa SSW 5.1 km/h 11.1 km/h 65 % 0 mm
05:38 -6.7 °C -12.2 °C 1026 hPa SSW 5.6 km/h 9.3 km/h 65 % 0 mm
05:43 -6.7 °C -12 °C 1026 hPa SSW 3.7 km/h 8 km/h 66 % 0 mm
05:48 -6.8 °C -12.1 °C 1026 hPa SSW 4.3 km/h 11.1 km/h 66 % 0 mm
05:53 -6.8 °C -11.9 °C 1026 hPa SSW 7.1 km/h 12.9 km/h 67 % 0 mm
05:58 -6.9 °C -12 °C 1026 hPa SSW 9.5 km/h 16.7 km/h 67 % 0 mm
06:04 -6.9 °C -12.1 °C 1026.3 hPa SW 9.5 km/h 18.5 km/h 67 % 0 mm
06:09 -6.9 °C -12.1 °C 1026.3 hPa SW 1.4 km/h 9.3 km/h 67 % 0 mm
06:20 -7 °C -11.9 °C 1025.6 hPa SW 6.8 km/h 9.7 km/h 68 % 0 mm
06:43 -7.1 °C -12 °C 1025.6 hPa SSW 8.9 km/h 13 km/h 68 % 0 mm
06:48 -7.1 °C -11.8 °C 1025.6 hPa SW 8.2 km/h 14.8 km/h 69 % 0 mm
06:55 -7.1 °C -11.8 °C 1025.6 hPa SSW 8.9 km/h 14.8 km/h 69 % 0 mm
07:00 -7.1 °C -11.8 °C 1025.6 hPa SSW 5.3 km/h 9.3 km/h 69 % 0 mm
07:04 -7.1 °C -11.8 °C 1025.3 hPa SW 4 km/h 9.3 km/h 69 % 0 mm
07:07 -7.1 °C -11.8 °C 1025.3 hPa SSW 5.6 km/h 9.3 km/h 69 % 0 mm
07:13 -7.1 °C -11.8 °C 1025.3 hPa SSW 3.9 km/h 9.7 km/h 69 % 0 mm
07:15 -7.1 °C -11.8 °C 1025.3 hPa SW 4.2 km/h 11.1 km/h 69 % 0 mm
07:20 -7.1 °C -11.6 °C 1025.6 hPa SW 1.9 km/h 9.3 km/h 70 % 0 mm
07:23 -7.1 °C -11.7 °C 1025.6 hPa SW 7.6 km/h 11.3 km/h 70 % 0 mm
07:29 -7.1 °C -11.6 °C 1025.3 hPa SW 4.8 km/h 9.3 km/h 70 % 0 mm
07:36 -7 °C -11.6 °C 1025.3 hPa SW 3.7 km/h 7.4 km/h 70 % 0 mm
07:43 -6.9 °C -11.5 °C 1025.3 hPa SW 3.4 km/h 6.4 km/h 70 % 0 mm
07:48 -6.8 °C -11.4 °C 1025.3 hPa SSW 2.9 km/h 7.4 km/h 70 % 0 mm
07:53 -6.7 °C -11.1 °C 1025.3 hPa SW 6.9 km/h 12.9 km/h 71 % 0 mm
07:58 -6.6 °C -11.1 °C 1024.9 hPa SW 1.4 km/h 14.8 km/h 70 % 0 mm
08:04 -6.4 °C -11 °C 1024.6 hPa SW 5.1 km/h 8 km/h 70 % 0 mm
08:10 -6.3 °C -10.8 °C 1024.6 hPa West 8 km/h 12.9 km/h 70 % 0 mm
08:18 -6.1 °C -10.7 °C 1024.3 hPa SW 5.6 km/h 9.7 km/h 70 % 0 mm
08:23 -5.9 °C -10.7 °C 1024.3 hPa SSW 4 km/h 11.1 km/h 69 % 0 mm
08:29 -5.7 °C -10.5 °C 1024.6 hPa SW 2.7 km/h 6.4 km/h 69 % 0 mm
08:34 -5.6 °C -10.3 °C 1024.3 hPa SW 7.1 km/h 11.3 km/h 69 % 0 mm
08:39 -5.4 °C -10.2 °C 1024.6 hPa WSW 6.1 km/h 11.3 km/h 69 % 0 mm
08:45 -5.2 °C -10.2 °C 1024.3 hPa SW 6.6 km/h 12.9 km/h 68 % 0 mm
08:49 -5.1 °C -10.2 °C 1024.6 hPa SW 5.3 km/h 11.1 km/h 67 % 0 mm
08:54 -4.8 °C -10 °C 1024.3 hPa SSW 6 km/h 13 km/h 67 % 0 mm
08:56 -4.7 °C -9.9 °C 1024.6 hPa SW 6.9 km/h 11.3 km/h 67 % 0 mm
09:02 -4.6 °C -9.9 °C 1024.6 hPa SW 7.6 km/h 9.7 km/h 66 % 0 mm
09:07 -4.4 °C -10.1 °C 1024.3 hPa SW 4 km/h 11.1 km/h 65 % 0 mm
09:12 -4.3 °C -9.9 °C 1024.3 hPa SW 6.3 km/h 9.7 km/h 65 % 0 mm
09:18 -4.2 °C -10 °C 1024.3 hPa SW 7.4 km/h 11.1 km/h 64 % 0 mm
09:24 -4 °C -10 °C 1024.3 hPa SSW 4.7 km/h 13 km/h 63 % 0 mm
09:35 -3.6 °C -9.8 °C 1024.3 hPa West 4.2 km/h 14.8 km/h 62 % 0 mm
09:41 -3.4 °C -9.7 °C 1024.3 hPa South 5.1 km/h 9.3 km/h 62 % 0 mm
09:47 -3.2 °C -9.8 °C 1023.9 hPa SSW 12.9 km/h 24.1 km/h 60 % 0 mm
09:54 -2.9 °C -10.1 °C 1024.3 hPa WSW 8.2 km/h 16.7 km/h 58 % 0 mm
10:00 -2.7 °C -9.8 °C 1024.3 hPa WSW 5.5 km/h 20.4 km/h 58 % 0 mm
10:05 -2.6 °C -9.7 °C 1023.9 hPa West 6.3 km/h 13 km/h 58 % 0 mm
10:11 -2.4 °C -9.6 °C 1023.9 hPa SW 11.3 km/h 22.5 km/h 58 % 0 mm
10:17 -2.3 °C -9.7 °C 1023.9 hPa SW 8.2 km/h 13 km/h 57 % 0 mm
10:24 -2.2 °C -9.6 °C 1023.6 hPa West 1.8 km/h 11.1 km/h 57 % 0 mm
10:30 -2.1 °C -9.7 °C 1023.6 hPa SW 9 km/h 14.5 km/h 56 % 0 mm
10:35 -2 °C -9.6 °C 1023.6 hPa West 3.2 km/h 14.8 km/h 56 % 0 mm
10:45 -1.7 °C -9.3 °C 1023.2 hPa West 4.8 km/h 9.7 km/h 56 % 0 mm
10:53 -1.6 °C -9.2 °C 1023.2 hPa WSW 7.7 km/h 11.3 km/h 56 % 0 mm
10:59 -1.3 °C -9 °C 1022.9 hPa West 2.1 km/h 8 km/h 56 % 0 mm
11:06 -1.2 °C -9.3 °C 1022.9 hPa SSW 11.9 km/h 22.2 km/h 54 % 0 mm
11:12 -1 °C -9.2 °C 1022.9 hPa WSW 8.9 km/h 16.7 km/h 54 % 0 mm
11:18 -0.8 °C -9.2 °C 1022.6 hPa SW 7.6 km/h 20.9 km/h 53 % 0 mm
11:24 -0.8 °C -8.9 °C 1022.6 hPa WSW 2.4 km/h 18.5 km/h 54 % 0 mm
11:29 -0.7 °C -9.1 °C 1022.6 hPa SW 8 km/h 22.2 km/h 53 % 0 mm
11:35 -0.6 °C -9 °C 1014.1 hPa SSW 9.5 km/h 22.2 km/h 53 % 0 mm
11:40 -0.4 °C -8.9 °C 1021.9 hPa SSW 5.5 km/h 13 km/h 53 % 0 mm
11:46 -0.4 °C -8.6 °C 1021.9 hPa SW 8 km/h 19.3 km/h 54 % 0 mm
11:51 -0.3 °C -8.5 °C 1021.6 hPa SSW 4.8 km/h 16.1 km/h 54 % 0 mm
11:56 -0.2 °C -8.4 °C 1021.6 hPa SSW 9.8 km/h 20.4 km/h 54 % 0 mm
12:01 -0.1 °C -8.1 °C 1021.2 hPa WSW 9.2 km/h 20.9 km/h 55 % 0 mm
12:02 -0.1 °C -8.1 °C 1021.2 hPa SW 12.7 km/h 12.7 km/h 55 % 0 mm
12:07 0.1 °C -8.2 °C 1020.9 hPa SSW 12.4 km/h 18.5 km/h 54 % 0 mm
12:23 0.1 °C -8.6 °C 1020.5 hPa WSW 10.9 km/h 20.4 km/h 52 % 0 mm
12:26 0.1 °C -8.6 °C 1020.5 hPa WSW 8.4 km/h 11.3 km/h 52 % 0 mm
12:31 0.2 °C -8.6 °C 1020.5 hPa SW 9 km/h 16.7 km/h 52 % 0 mm
12:35 0.1 °C -8.8 °C 1020.5 hPa SSW 8.4 km/h 14.8 km/h 51 % 0 mm
12:40 0.1 °C -8.9 °C 1020.5 hPa SW 16.1 km/h 24.1 km/h 51 % 0 mm
12:45 0 °C -8.9 °C 1020.5 hPa SSW 13 km/h 18.5 km/h 51 % 0 mm
12:50 -0.1 °C -8.8 °C 1020.2 hPa SW 10.8 km/h 19.3 km/h 52 % 0 mm
12:53 -0.2 °C -9.1 °C 1020.2 hPa South 10.1 km/h 18.5 km/h 51 % 0 mm
12:58 -0.2 °C -8.9 °C 1019.9 hPa WSW 14 km/h 29.6 km/h 52 % 0 mm
13:00 -0.3 °C -9.2 °C 1019.9 hPa WSW 15.3 km/h 22.2 km/h 51 % 0 mm
13:05 -0.3 °C -9 °C 1019.9 hPa SSW 14.8 km/h 24.1 km/h 52 % 0 mm
13:08 -0.3 °C -9 °C 1019.9 hPa SSW 7.6 km/h 13 km/h 52 % 0 mm
13:13 -0.3 °C -8.8 °C 1019.5 hPa South 6.1 km/h 18.5 km/h 53 % 0 mm
13:15 -0.3 °C -8.5 °C 1019.2 hPa SSW 6.9 km/h 11.3 km/h 54 % 0 mm
13:20 -0.3 °C -8.5 °C 1019.2 hPa South 6.8 km/h 13 km/h 54 % 0 mm
13:23 -0.3 °C -8.5 °C 1019.2 hPa South 11.6 km/h 19.3 km/h 54 % 0 mm
13:28 -0.4 °C -8.3 °C 1019.2 hPa SSW 3.5 km/h 7.4 km/h 55 % 0 mm
13:34 -0.3 °C -8.1 °C 1019.2 hPa SW 8.5 km/h 13 km/h 56 % 0 mm
13:39 -0.3 °C -8 °C 1018.8 hPa SW 7.7 km/h 18.5 km/h 56 % 0 mm
13:44 -0.2 °C -7.9 °C 1018.5 hPa SSW 10.1 km/h 11.3 km/h 56 % 0 mm
13:49 -0.2 °C -7.7 °C 1018.8 hPa SW 9.5 km/h 18.5 km/h 57 % 0 mm
13:54 -0.1 °C -7.6 °C 1018.8 hPa South 9 km/h 11.1 km/h 57 % 0 mm
13:59 -0.1 °C -7.6 °C 1018.8 hPa SSW 9.2 km/h 14.8 km/h 57 % 0 mm
14:04 -0.1 °C -7.6 °C 1018.8 hPa SW 14 km/h 24.1 km/h 57 % 0 mm
14:06 -0.1 °C -7.6 °C 1018.5 hPa SSW 8.5 km/h 14.8 km/h 57 % 0 mm
14:10 -0.2 °C -7.7 °C 1018.8 hPa SW 5.6 km/h 9.3 km/h 57 % 0 mm
14:15 -0.2 °C -7.4 °C 1018.8 hPa SW 6.3 km/h 16.7 km/h 58 % 0 mm
14:21 -0.2 °C -7.4 °C 1018.5 hPa SSW 11.3 km/h 24.1 km/h 58 % 0 mm
14:26 -0.2 °C -7.4 °C 1018.5 hPa SSW 9.7 km/h 16.1 km/h 58 % 0 mm
14:28 -0.2 °C -7.2 °C 1018.2 hPa South 4.7 km/h 8 km/h 59 % 0 mm
14:34 -0.1 °C -7.2 °C 1018.2 hPa WSW 7.1 km/h 14.5 km/h 59 % 0 mm
14:37 -0.1 °C -7.2 °C 1018.2 hPa SSW 3.2 km/h 5.6 km/h 59 % 0 mm
14:43 -0.1 °C -6.9 °C 1018.2 hPa South 3.7 km/h 7.4 km/h 60 % 0 mm
14:49 0 °C -6.8 °C 1018.2 hPa SSW 5.5 km/h 9.3 km/h 60 % 0 mm
14:54 0.1 °C -6.8 °C 1017.8 hPa SSW 13 km/h 18.5 km/h 60 % 0 mm
14:59 0.1 °C -6.7 °C 1017.8 hPa SSW 2.3 km/h 5.6 km/h 60 % 0 mm
15:05 0.2 °C -6.7 °C 1017.5 hPa SW 5.3 km/h 16.7 km/h 60 % 0 mm
15:10 0.2 °C -6.4 °C 1017.2 hPa SSW 5 km/h 11.1 km/h 61 % 0 mm
15:16 0.3 °C -6.6 °C 1017.2 hPa South 8.5 km/h 13 km/h 60 % 0 mm
15:21 0.3 °C -6.3 °C 1017.2 hPa SSW 5.8 km/h 11.3 km/h 61 % 0 mm
15:26 0.4 °C -6.3 °C 1017.5 hPa SW 10.3 km/h 16.7 km/h 61 % 0 mm
15:33 0.5 °C -5.9 °C 1017.8 hPa SW 10.8 km/h 18.5 km/h 62 % 0 mm
15:39 0.6 °C -5.9 °C 1017.8 hPa West 8.4 km/h 14.8 km/h 62 % 0 mm
15:54 0.7 °C -5.9 °C 1018.2 hPa SW 9 km/h 22.5 km/h 61 % 0 mm
15:57 0.7 °C -5.7 °C 1018.2 hPa SSW 5.1 km/h 22.5 km/h 62 % 0 mm
16:03 0.7 °C -5.3 °C 1018.2 hPa WSW 1 km/h 16.7 km/h 64 % 0 mm
16:10 0.7 °C -5.1 °C 1018.5 hPa SW 6.1 km/h 13 km/h 65 % 0 mm
16:15 0.7 °C -4.8 °C 1018.5 hPa WSW 6.6 km/h 13 km/h 67 % 0 mm
16:18 0.7 °C -4.6 °C 1018.2 hPa West 4.5 km/h 11.3 km/h 68 % 0 mm
16:23 0.6 °C -4.7 °C 1018.5 hPa WSW 6.1 km/h 9.3 km/h 68 % 0 mm
16:29 0.5 °C -4.6 °C 1018.5 hPa SW 5 km/h 13 km/h 69 % 0 mm
16:35 0.4 °C -4.4 °C 1018.5 hPa West 5 km/h 8 km/h 70 % 0 mm
16:42 0.3 °C -4.3 °C 1018.2 hPa WSW 2.3 km/h 5.6 km/h 71 % 0 mm
16:47 0.2 °C -4.4 °C 1018.5 hPa SW 6.1 km/h 11.3 km/h 71 % 0 mm
16:53 0.1 °C -4.3 °C 1018.2 hPa WSW 4 km/h 11.1 km/h 72 % 0 mm
16:59 0 °C -4.4 °C 1018.2 hPa WSW 5 km/h 18.5 km/h 72 % 0 mm
17:10 -0.2 °C -4.4 °C 1018.2 hPa SSW 4.7 km/h 13 km/h 73 % 0 mm
17:14 -0.2 °C -4.3 °C 1018.2 hPa SW 6.1 km/h 9.7 km/h 74 % 0 mm
17:20 -0.3 °C -4.2 °C 1018.2 hPa WSW 5.5 km/h 9.3 km/h 75 % 0 mm
17:26 -0.3 °C -4.1 °C 1018.2 hPa SW 7.2 km/h 7.4 km/h 76 % 0 mm
17:28 -0.3 °C -4.1 °C 1018.5 hPa West 2.9 km/h 13 km/h 76 % 0 mm
17:34 -0.4 °C -3.8 °C 1018.5 hPa SW 4.8 km/h 11.3 km/h 78 % 0 mm
17:39 -0.5 °C -3.9 °C 1018.5 hPa SW 4.8 km/h 6.4 km/h 78 % 0 mm
17:40 -0.5 °C -3.9 °C 1018.5 hPa SW 2.9 km/h 5.6 km/h 78 % 0 mm
17:46 -0.6 °C -3.8 °C 1018.5 hPa WSW 4 km/h 11.3 km/h 79 % 0 mm
17:53 -0.7 °C -3.7 °C 1010 hPa West 3.4 km/h 7.4 km/h 80 % 0 mm
17:54 -0.7 °C -3.7 °C 1010.4 hPa West 2.9 km/h 5.6 km/h 80 % 0 mm
17:58 -0.7 °C -3.6 °C 1018.5 hPa SW 3.1 km/h 9.7 km/h 81 % 0 mm
17:59 -0.7 °C -3.6 °C 1018.5 hPa SW 3.1 km/h 9.3 km/h 81 % 0 mm
18:01 -0.7 °C -3.6 °C 1018.5 hPa SW 3.2 km/h 5.6 km/h 81 % 0 mm
18:04 -0.7 °C -3.6 °C 1018.5 hPa SW 2.7 km/h 6.4 km/h 81 % 0 mm
18:06 -0.8 °C -3.6 °C 1018.5 hPa WSW 3.7 km/h 5.6 km/h 81 % 0 mm
18:08 -0.8 °C -3.4 °C 1010 hPa WSW 1.8 km/h 8 km/h 82 % 0 mm
18:09 -0.8 °C -3.4 °C 1018.5 hPa WSW 4.2 km/h 7.4 km/h 82 % 0 mm
18:11 -0.8 °C -3.4 °C 1018.5 hPa SW 6.6 km/h 9.7 km/h 82 % 0 mm
18:12 -0.8 °C -3.5 °C 1018.5 hPa WSW 5.8 km/h 9.7 km/h 82 % 0 mm
18:15 -0.8 °C -3.5 °C 1018.5 hPa West 3.7 km/h 7.4 km/h 82 % 0 mm
18:18 -0.9 °C -3.6 °C 1018.5 hPa West 5 km/h 6.4 km/h 82 % 0 mm
18:19 -0.9 °C -3.6 °C 1018.8 hPa West 3.9 km/h 8 km/h 82 % 0 mm
18:24 -0.9 °C -3.6 °C 1018.5 hPa SSW 2.4 km/h 7.4 km/h 82 % 0 mm
18:28 -0.9 °C -3.4 °C 1018.5 hPa WSW 4.8 km/h 13 km/h 83 % 0 mm
18:30 -1 °C -3.5 °C 1018.5 hPa SW 6.3 km/h 12.9 km/h 83 % 0 mm
18:32 -1 °C -3.5 °C 1018.5 hPa SW 8.7 km/h 13 km/h 83 % 0 mm
18:35 -1.1 °C -3.6 °C 1018.5 hPa SW 5.1 km/h 11.1 km/h 83 % 0 mm
18:38 -1.1 °C -3.6 °C 1010.4 hPa WSW 5.6 km/h 9.7 km/h 83 % 0 mm
18:42 -1.1 °C -3.6 °C 1018.5 hPa WSW 4.2 km/h 13 km/h 83 % 0 mm
18:43 -1.1 °C -3.6 °C 1018.5 hPa WSW 3.9 km/h 7.4 km/h 83 % 0 mm
18:47 -1.1 °C -3.6 °C 1010.4 hPa West 6.3 km/h 9.7 km/h 83 % 0 mm
18:48 -1.1 °C -3.6 °C 1018.8 hPa WSW 2.4 km/h 5.6 km/h 83 % 0 mm
18:50 -1.1 °C -3.6 °C 1010.4 hPa WSW 1 km/h 5.6 km/h 83 % 0 mm
18:52 -1.1 °C -3.6 °C 1018.8 hPa WSW 6.1 km/h 9.7 km/h 83 % 0 mm
18:53 -1.2 °C -3.7 °C 1018.5 hPa SSW 5.6 km/h 9.7 km/h 83 % 0 mm
18:59 -1.1 °C -3.6 °C 1018.5 hPa WSW 5.5 km/h 8 km/h 83 % 0 mm
19:03 -1.1 °C -3.6 °C 1018.5 hPa WSW 6 km/h 9.7 km/h 83 % 0 mm
19:05 -1.1 °C -3.6 °C 1010.4 hPa WSW 0.8 km/h 3.7 km/h 83 % 0 mm
19:08 -1.1 °C -3.6 °C 1018.5 hPa SW 3.2 km/h 8 km/h 83 % 0 mm
19:10 -1.1 °C -3.6 °C 1010.4 hPa SW 5.1 km/h 11.3 km/h 83 % 0 mm
19:11 -1.1 °C -3.6 °C 1018.5 hPa WSW 3.4 km/h 6.4 km/h 83 % 0 mm
19:13 -1.1 °C -3.6 °C 1018.5 hPa WSW 4 km/h 13 km/h 83 % 0 mm
19:15 -1.1 °C -3.6 °C 1010 hPa SW 5.3 km/h 8 km/h 83 % 0 mm
19:16 -1.1 °C -3.6 °C 1018.5 hPa SSW 4.8 km/h 7.4 km/h 83 % 0 mm
19:17 -1.1 °C -3.6 °C 1018.5 hPa WSW 5 km/h 11.3 km/h 83 % 0 mm
19:19 -1.1 °C -3.7 °C 1018.5 hPa WSW 4.3 km/h 11.1 km/h 82 % 0 mm
19:21 -1.1 °C -3.7 °C 1018.5 hPa WSW 5.1 km/h 11.3 km/h 82 % 0 mm
19:24 -1.1 °C -3.7 °C 1018.5 hPa SW 3.2 km/h 11.1 km/h 82 % 0 mm
19:26 -1 °C -3.7 °C 1018.5 hPa WSW 5 km/h 9.7 km/h 82 % 0 mm
19:27 -1 °C -3.7 °C 1010 hPa WSW 5.5 km/h 5.6 km/h 82 % 0 mm
19:28 -1 °C -3.7 °C 1018.2 hPa SSW 2.9 km/h 9.3 km/h 82 % 0 mm
19:32 -0.9 °C -3.8 °C 1018.2 hPa SSW 6.3 km/h 11.3 km/h 81 % 0 mm
19:33 -0.9 °C -3.8 °C 1018.5 hPa WSW 8.4 km/h 11.1 km/h 81 % 0 mm
19:34 -0.9 °C -3.8 °C 1018.2 hPa SSW 7.6 km/h 14.8 km/h 81 % 0 mm
19:38 -0.9 °C -3.7 °C 1018.5 hPa SW 4 km/h 9.3 km/h 81 % 0 mm
19:40 -0.9 °C -3.7 °C 1010 hPa SSW 4.3 km/h 5.6 km/h 81 % 0 mm
19:42 -0.8 °C -3.8 °C 1018.5 hPa WSW 4.5 km/h 8 km/h 80 % 0 mm
19:46 -0.8 °C -3.8 °C 1018.2 hPa SW 8.7 km/h 12.9 km/h 80 % 0 mm
19:49 -0.8 °C -3.8 °C 1010 hPa WSW 6.4 km/h 11.3 km/h 80 % 0 mm
19:51 -0.8 °C -3.8 °C 1018.2 hPa SW 5.3 km/h 7.4 km/h 80 % 0 mm
19:52 -0.8 °C -3.8 °C 1010 hPa SW 5.5 km/h 11.3 km/h 80 % 0 mm
19:56 -0.7 °C -3.7 °C 1018.5 hPa SSW 4.8 km/h 9.3 km/h 80 % 0 mm
19:57 -0.7 °C -3.7 °C 1018.5 hPa SSW 4.3 km/h 7.4 km/h 80 % 0 mm
19:58 -0.7 °C -3.9 °C 1018.5 hPa WSW 4.5 km/h 7.4 km/h 79 % 0 mm
19:59 -0.7 °C -3.9 °C 1010 hPa South 6.8 km/h 11.1 km/h 79 % 0 mm
20:00 -0.7 °C -3.9 °C 1010 hPa WSW 5.6 km/h 11.1 km/h 79 % 0 mm
20:02 -0.7 °C -3.8 °C 1018.5 hPa SW 9.5 km/h 16.1 km/h 79 % 0 mm
20:03 -0.7 °C -3.8 °C 1018.5 hPa WSW 5.6 km/h 16.7 km/h 79 % 0 mm
20:04 -0.7 °C -3.8 °C 1018.2 hPa SW 5.3 km/h 11.1 km/h 79 % 0 mm
20:05 -0.7 °C -3.8 °C 1018.2 hPa SSW 5.8 km/h 11.1 km/h 79 % 0 mm
20:06 -0.7 °C -3.8 °C 1018.2 hPa SW 10 km/h 16.7 km/h 79 % 0 mm
20:09 -0.6 °C -4 °C 1018.2 hPa SW 8 km/h 14.8 km/h 78 % 0 mm
20:10 -0.6 °C -4 °C 1018.2 hPa WSW 7.7 km/h 16.1 km/h 78 % 0 mm
20:11 -0.6 °C -4 °C 1018.2 hPa WSW 9 km/h 16.1 km/h 78 % 0 mm
20:14 -0.6 °C -4 °C 1018.2 hPa SW 4.8 km/h 9.3 km/h 78 % 0 mm
20:15 -0.6 °C -3.9 °C 1018.2 hPa SW 2.1 km/h 7.4 km/h 78 % 0 mm
20:16 -0.6 °C -4 °C 1018.2 hPa SSW 5 km/h 11.3 km/h 78 % 0 mm
20:17 -0.6 °C -3.9 °C 1018.2 hPa SW 6.9 km/h 13 km/h 78 % 0 mm
20:18 -0.6 °C -3.9 °C 1018.2 hPa SW 6.4 km/h 11.3 km/h 78 % 0 mm
20:21 -0.6 °C -3.9 °C 1018.2 hPa SW 4.8 km/h 12.9 km/h 78 % 0 mm
20:23 -0.6 °C -3.9 °C 1018.2 hPa SW 5.5 km/h 11.1 km/h 78 % 0 mm
20:25 -0.6 °C -3.9 °C 1018.2 hPa WSW 7.4 km/h 9.3 km/h 78 % 0 mm
20:29 -0.5 °C -3.9 °C 1017.8 hPa WSW 5.3 km/h 9.7 km/h 78 % 0 mm
20:30 -0.5 °C -3.9 °C 1018.2 hPa SW 5 km/h 14.5 km/h 78 % 0 mm
20:32 -0.5 °C -3.9 °C 1018.2 hPa SW 8.2 km/h 12.9 km/h 78 % 0 mm
20:34 -0.5 °C -3.9 °C 1009.7 hPa WSW 5.1 km/h 13 km/h 78 % 0 mm
20:35 -0.4 °C -3.8 °C 1018.2 hPa SW 3.2 km/h 8 km/h 78 % 0 mm
20:37 -0.4 °C -3.8 °C 1018.2 hPa SSW 5.1 km/h 9.7 km/h 78 % 0 mm
20:39 -0.4 °C -3.8 °C 1017.8 hPa WSW 10.6 km/h 11.3 km/h 78 % 0 mm
20:44 -0.4 °C -3.8 °C 1017.8 hPa SSW 10.8 km/h 20.4 km/h 78 % 0 mm
20:47 -0.4 °C -3.8 °C 1009.7 hPa WSW 7.2 km/h 13 km/h 78 % 0 mm
20:49 -0.4 °C -3.8 °C 1017.8 hPa SW 8.5 km/h 13 km/h 78 % 0 mm
20:50 -0.4 °C -3.8 °C 1017.8 hPa WSW 4.7 km/h 13 km/h 78 % 0 mm
20:51 -0.4 °C -3.8 °C 1017.8 hPa WSW 7.2 km/h 11.1 km/h 78 % 0 mm
20:52 -0.4 °C -3.8 °C 1017.8 hPa SSW 4.7 km/h 11.1 km/h 78 % 0 mm
20:54 -0.4 °C -3.8 °C 1017.8 hPa SW 4.3 km/h 9.7 km/h 78 % 0 mm
20:56 -0.4 °C -3.8 °C 1017.8 hPa SSW 7.4 km/h 14.8 km/h 78 % 0 mm
20:59 -0.3 °C -3.7 °C 1009.4 hPa SSW 5.1 km/h 13 km/h 78 % 0 mm
21:00 -0.3 °C -3.7 °C 1009.4 hPa SW 9.3 km/h 13 km/h 78 % 0 mm
21:01 -0.3 °C -3.7 °C 1017.8 hPa WSW 9.3 km/h 13 km/h 78 % 0 mm
21:03 -0.3 °C -3.7 °C 1017.8 hPa SSW 8.4 km/h 11.3 km/h 78 % 0 mm
21:04 -0.3 °C -3.7 °C 1017.8 hPa SSW 7.9 km/h 13 km/h 78 % 0 mm
21:07 -0.3 °C -3.7 °C 1017.8 hPa SW 7.1 km/h 11.3 km/h 78 % 0 mm
21:11 -0.3 °C -3.7 °C 1017.5 hPa SSW 5 km/h 9.7 km/h 78 % 0 mm
21:12 -0.3 °C -3.7 °C 1017.5 hPa SSW 3.7 km/h 7.4 km/h 78 % 0 mm
21:14 -0.3 °C -3.7 °C 1009.4 hPa SSW 5 km/h 11.3 km/h 78 % 0 mm
21:20 -0.3 °C -3.7 °C 1017.5 hPa WSW 1.1 km/h 6.4 km/h 78 % 0 mm
21:23 -0.3 °C -3.7 °C 1017.8 hPa West 3.4 km/h 11.1 km/h 78 % 0 mm
21:25 -0.3 °C -3.7 °C 1009.4 hPa WSW 3.1 km/h 7.4 km/h 78 % 0 mm
21:26 -0.3 °C -3.7 °C 1017.8 hPa WSW 0.6 km/h 7.4 km/h 78 % 0 mm
21:27 -0.3 °C -3.7 °C 1009.4 hPa Calm   1.9 km/h 78 % 0 mm
21:28 -0.3 °C -3.7 °C 1009.4 hPa SW 4.3 km/h 9.3 km/h 78 % 0 mm
21:29 -0.3 °C -3.7 °C 1009.4 hPa SW 3.5 km/h 6.4 km/h 78 % 0 mm
21:30 -0.3 °C -3.7 °C 1017.8 hPa SW 3.4 km/h 5.6 km/h 78 % 0 mm
21:31 -0.3 °C -3.7 °C 1017.8 hPa West 2.3 km/h 9.3 km/h 78 % 0 mm
21:32 -0.3 °C -3.7 °C 1018.2 hPa West 2.1 km/h 5.6 km/h 78 % 0 mm
21:33 -0.3 °C -3.7 °C 1018.2 hPa Calm   5.6 km/h 78 % 0 mm
21:34 -0.2 °C -3.6 °C 1017.8 hPa WSW 3.5 km/h 5.6 km/h 78 % 0 mm
21:35 -0.3 °C -3.7 °C 1018.2 hPa WSW 5.5 km/h 7.4 km/h 78 % 0 mm
21:36 -0.3 °C -3.7 °C 1017.8 hPa WSW 4.8 km/h 8 km/h 78 % 0 mm
21:37 -0.3 °C -3.7 °C 1017.8 hPa WSW 2.7 km/h 5.6 km/h 78 % 0 mm
21:38 -0.3 °C -3.7 °C 1017.8 hPa West 2.6 km/h 6.4 km/h 78 % 0 mm
21:39 -0.3 °C -3.7 °C 1009.7 hPa SW 4.3 km/h 9.7 km/h 78 % 0 mm
21:40 -0.3 °C -3.7 °C 1017.8 hPa SW 5.8 km/h 9.3 km/h 78 % 0 mm
21:43 -0.3 °C -3.7 °C 1017.8 hPa Calm   3.7 km/h 78 % 0 mm
21:44 -0.3 °C -3.7 °C 1017.8 hPa WSW 1 km/h 3.7 km/h 78 % 0 mm
21:45 -0.2 °C -3.6 °C 1017.8 hPa WSW 1.6 km/h 5.6 km/h 78 % 0 mm
21:46 -0.3 °C -3.7 °C 1017.8 hPa SW 2.7 km/h 5.6 km/h 78 % 0 mm
21:50 -0.3 °C -3.5 °C 1017.8 hPa WSW 6.4 km/h 12.9 km/h 79 % 0 mm
21:52 -0.3 °C -3.5 °C 1017.8 hPa SW 3.5 km/h 8 km/h 79 % 0 mm
21:53 -0.2 °C -3.4 °C 1017.8 hPa WSW 4.2 km/h 8 km/h 79 % 0 mm
21:55 -0.2 °C -3.4 °C 1009.4 hPa SW 4.8 km/h 5.6 km/h 79 % 0 mm
21:56 -0.2 °C -3.4 °C 1009.4 hPa SW 2.1 km/h 5.6 km/h 79 % 0 mm
21:58 -0.3 °C -3.5 °C 1017.5 hPa WSW 6.9 km/h 11.1 km/h 79 % 0 mm
21:59 -0.2 °C -3.4 °C 1017.5 hPa WSW 6.9 km/h 11.1 km/h 79 % 0 mm
22:00 -0.3 °C -3.5 °C 1017.5 hPa WSW 1.1 km/h 7.4 km/h 79 % 0 mm
22:03 -0.2 °C -3.4 °C 1017.5 hPa WSW 5.5 km/h 7.4 km/h 79 % 0 mm
22:04 -0.2 °C -3.4 °C 1017.5 hPa WSW 2.3 km/h 5.6 km/h 79 % 0 mm
22:06 -0.2 °C -3.4 °C 1017.5 hPa SW 1.9 km/h 5.6 km/h 79 % 0 mm
22:07 -0.3 °C -3.5 °C 1017.5 hPa West 2.9 km/h 6.4 km/h 79 % 0 mm
22:08 -0.2 °C -3.4 °C 1017.5 hPa WSW 3.7 km/h 7.4 km/h 79 % 0 mm
22:09 -0.2 °C -3.4 °C 1009.4 hPa WSW 1.9 km/h 7.4 km/h 79 % 0 mm
22:10 -0.2 °C -3.4 °C 1017.5 hPa South 2.4 km/h 6.4 km/h 79 % 0 mm
22:11 -0.3 °C -3.5 °C 1017.5 hPa SSW 4.3 km/h 9.3 km/h 79 % 0 mm
22:12 -0.2 °C -3.4 °C 1017.5 hPa SSW 1.8 km/h 9.3 km/h 79 % 0 mm
22:13 -0.2 °C -3.4 °C 1017.5 hPa WSW 3.7 km/h 5.6 km/h 79 % 0 mm
22:14 -0.2 °C -3.4 °C 1017.5 hPa SW 2.7 km/h 7.4 km/h 79 % 0 mm
22:15 -0.2 °C -3.4 °C 1009.4 hPa WSW 2.1 km/h 5.6 km/h 79 % 0 mm
22:16 -0.2 °C -3.4 °C 1017.5 hPa West 3.2 km/h 5.6 km/h 79 % 0 mm
22:17 -0.2 °C -3.4 °C 1017.5 hPa West 3.4 km/h 9.7 km/h 79 % 0 mm
22:18 -0.2 °C -3.4 °C 1017.5 hPa West 0.6 km/h 9.3 km/h 79 % 0 mm
22:19 -0.2 °C -3.4 °C 1017.5 hPa WSW 2.4 km/h 5.6 km/h 79 % 0 mm
22:20 -0.2 °C -3.4 °C 1017.5 hPa SW 4.5 km/h 8 km/h 79 % 0 mm
22:22 -0.2 °C -3.4 °C 1017.2 hPa SW 3.2 km/h 6.4 km/h 79 % 0 mm
22:24 -0.2 °C -3.4 °C 1017.2 hPa SW 4.7 km/h 7.4 km/h 79 % 0 mm
22:25 -0.2 °C -3.4 °C 1017.2 hPa SW 4.8 km/h 6.4 km/h 79 % 0 mm
22:27 -0.2 °C -3.4 °C 1017.2 hPa SW 2.9 km/h 7.4 km/h 79 % 0 mm
22:28 -0.2 °C -3.4 °C 1017.2 hPa SSW 4.2 km/h 8 km/h 79 % 0 mm
22:30 -0.2 °C -3.4 °C 1017.2 hPa West 5.1 km/h 9.3 km/h 79 % 0 mm
22:32 -0.2 °C -3.4 °C 1017.2 hPa SW 1.8 km/h 8 km/h 79 % 0 mm
22:34 -0.2 °C -3.4 °C 1017.2 hPa WSW 1.1 km/h 7.4 km/h 79 % 0 mm
22:37 -0.2 °C -3.4 °C 1017.5 hPa WSW 4.8 km/h 8 km/h 79 % 0 mm
22:38 -0.2 °C -3.4 °C 1017.5 hPa SW 2.1 km/h 5.6 km/h 79 % 0 mm
22:41 -0.2 °C -3.4 °C 1017.2 hPa WSW 1.6 km/h 6.4 km/h 79 % 0 mm
22:42 -0.2 °C -3.4 °C 1017.2 hPa SW 0.2 km/h 3.2 km/h 79 % 0 mm
22:43 -0.2 °C -3.4 °C 1017.2 hPa WSW 4.7 km/h 8 km/h 79 % 0 mm
22:47 -0.2 °C -3.4 °C 1017.5 hPa SW 1.4 km/h 5.6 km/h 79 % 0 mm
22:48 -0.2 °C -3.4 °C 1017.5 hPa WSW 4.5 km/h 8 km/h 79 % 0 mm
22:49 -0.2 °C -3.4 °C 1017.5 hPa SW 6.4 km/h 7.4 km/h 79 % 0 mm
22:50 -0.2 °C -3.4 °C 1017.5 hPa WSW 1.9 km/h 5.6 km/h 79 % 0 mm
22:51 -0.2 °C -3.4 °C 1017.5 hPa WSW 1.3 km/h 5.6 km/h 79 % 0 mm
22:56 -0.2 °C -3.4 °C 1017.2 hPa SW 5 km/h 9.3 km/h 79 % 0 mm
22:58 -0.2 °C -3.4 °C 1017.2 hPa SW 5.5 km/h 14.8 km/h 79 % 0 mm
22:59 -0.2 °C -3.4 °C 1017.5 hPa WSW 5 km/h 5.6 km/h 79 % 0 mm
23:00 -0.2 °C -3.4 °C 1009 hPa WNW 3.4 km/h 5.6 km/h 79 % 0 mm
23:02 -0.2 °C -3.4 °C 1017.2 hPa SW 3.4 km/h 6.4 km/h 79 % 0 mm
23:05 -0.2 °C -3.4 °C 1017.2 hPa WSW 2.3 km/h 9.3 km/h 79 % 0 mm
23:08 -0.2 °C -3.4 °C 1017.2 hPa WNW 6.1 km/h 9.3 km/h 79 % 0 mm
23:10 -0.2 °C -3.2 °C 1017.2 hPa WSW 5.1 km/h 14.5 km/h 80 % 0 mm
23:11 -0.2 °C -3.2 °C 1009 hPa WSW 7.6 km/h 8 km/h 80 % 0 mm
23:12 -0.2 °C -3.2 °C 1017.2 hPa SW 5.8 km/h 13 km/h 80 % 0 mm
23:15 -0.2 °C -3.2 °C 1017.2 hPa WSW 6.1 km/h 14.8 km/h 80 % 0 mm
23:17 -0.2 °C -3.2 °C 1017.2 hPa SSW 3.5 km/h 14.8 km/h 80 % 0 mm
23:18 -0.2 °C -3.2 °C 1016.8 hPa SW 2.9 km/h 7.4 km/h 80 % 0 mm
23:19 -0.2 °C -3.2 °C 1017.2 hPa West 9.2 km/h 14.8 km/h 80 % 0 mm
23:20 -0.2 °C -3.4 °C 1016.8 hPa West 7.4 km/h 18.5 km/h 79 % 0 mm
23:27 -0.1 °C -3.3 °C 1016.8 hPa SW 7.1 km/h 13 km/h 79 % 0 mm
23:28 -0.1 °C -3.3 °C 1008.4 hPa South 4.2 km/h 11.1 km/h 79 % 0 mm
23:29 -0.1 °C -3.2 °C 1016.8 hPa WSW 8 km/h 14.8 km/h 80 % 0 mm
23:30 -0.1 °C -3.2 °C 1016.5 hPa SW 6.1 km/h 13 km/h 80 % 0 mm
23:36 -0.1 °C -3.3 °C 1016.5 hPa WSW 7.2 km/h 14.8 km/h 79 % 0 mm
23:37 -0.1 °C -3.3 °C 1016.5 hPa SW 4.8 km/h 14.8 km/h 79 % 0 mm
23:38 -0.1 °C -3.3 °C 1016.5 hPa West 7.1 km/h 9.7 km/h 79 % 0 mm
23:39 -0.1 °C -3.3 °C 1008 hPa SSW 6.4 km/h 9.3 km/h 79 % 0 mm
23:41 -0.1 °C -3.3 °C 1016.5 hPa SW 8 km/h 8 km/h 79 % 0 mm
23:43 -0.1 °C -3.3 °C 1016.5 hPa WSW 5.6 km/h 13 km/h 79 % 0 mm
23:44 -0.1 °C -3.3 °C 1008 hPa SSW 7.7 km/h 14.5 km/h 79 % 0 mm
23:46 -0.1 °C -3.3 °C 1016.1 hPa SSW 4.5 km/h 11.1 km/h 79 % 0 mm
23:47 -0.1 °C -3.3 °C 1016.1 hPa SW 5.8 km/h 14.8 km/h 79 % 0 mm
23:48 -0.1 °C -3.3 °C 1016.1 hPa SW 5 km/h 11.1 km/h 79 % 0 mm
23:50 -0.1 °C -3.3 °C 1016.1 hPa South 9 km/h 14.8 km/h 79 % 0 mm
23:51 -0.1 °C -3.3 °C 1016.1 hPa West 10.6 km/h 16.7 km/h 79 % 0 mm
23:54 -0.1 °C -3.3 °C 1016.1 hPa WSW 8 km/h 18.5 km/h 79 % 0 mm
23:55 -0.1 °C -3.3 °C 1016.1 hPa WSW 8.7 km/h 18.5 km/h 79 % 0 mm
23:56 -0.1 °C -3.3 °C 1008 hPa SW 9.7 km/h 19.3 km/h 79 % 0 mm
23:58 -0.1 °C -3.3 °C 1016.1 hPa WSW 9.8 km/h 14.8 km/h 79 % 0 mm
Crab Meadow Weather
Compliments of Weather Underground - 3.5 mb

Script developed by  Jim McMurry - jmcmurry@mwt.net Adapted for the template by  Wim van der Kuil - Leuven-Template.eu

Astronomy: Mercury can get as hot as 800 degrees and can be as cold as 300 degrees below zero.